Other Surface Observations
Issued by NWS Charleston, SC

Home | Current Version | Previous Version | Text Only | Print | Product List | Glossary On
Versions: 1 2 3 4 5 6 7 8 9 10 11 12 13 14 15 16 17 18 19 20 21 22 23 24 25 26 27 28 29 30 31 32 33 34 35 36 37 38 39 40 41 42 43 44 45 46 47 48 49 50
000
SXUS52 KCHS 270028
OSOCHS

MARINE OBSERVATIONS
NATIONAL WEATHER SERVICE CHARLESTON SC
800 PM EDT THU MAY 26 2016

...DOWNTOWN CHARLESTON AND HARBOR...

CITY           SKY/WX    TMP DP  RH WIND       PRES   REMARKS
WATERFRONT PRK   N/A     77  66  68 S7        30.09F

...LAKE MOULTRIE...

CITY           SKY/WX    TMP DP  RH WIND       PRES   REMARKS
PINOPOLIS        N/A     86  55  35 S5        30.03S

...LAKE AND SUPPLEMENTAL COASTAL OBSERVATIONS...

STATION/POSITION TIME  TEMP    WIND        PRES    WAVE   SWELL
                       AIR SEA DIR/SP/G            HT/PER HT/PER/DIR
                 (UTC) (F)     (DEG/KT/KT) (MB)    (FT/S) (FT/S/D)
FORT PULASKI     0000                      1020.1R
SAPELO ISLAND    0000   77     110/  4     1019.0F
WINYAH BAY       2345   76     170/  8     1019.0F
LAKE MURRAY      0000   83     150/  7/  8 1017.6R
ACE BASIN NERRS  2300   79     140/  2     1020.0S


...C-MAN AND BUOY OBSERVATIONS...

STATION/POSITION TIME  TEMP    WIND        PRES    WAVE   SWELL
                       AIR SEA DIR/SP/G            HT/PER HT/PER/DIR
                 (UTC) (F)     (DEG/KT/KT) (MB)    (FT/S) (FT/S/D)
BUOY 41004       2350   78 78  130/  8/ 12 1019.5F   2/ 8   2/ 8
BUOY 41008       2250   77 79  100/ 12/ 12 1019.6    2/ 8   2/100/ 8
FOLLY BEACH CMAN 0000   76     140/  7/  9 1020.1S
CAPERS NS BUOY   0008   76 78  160/  8/ 10 1019.8R
FRIPP NS BUOY    0008   77 79  150/ 10/ 14 1019.3R
5E ST. MARYS GA  0001      78                N/A     2/ 8


STATION/POSITION TIME  TEMP    WIND        PRES    WAVE   SWELL
                       AIR SEA DIR/SP/G            HT/PER HT/PER/DIR
                 (UTC) (F)     (DEG/KT/KT) (MB)    (FT/S) (FT/S/D)
FRYING PAN BUOY  0000   77 78  130/ 10/ 12 1020.0F
BUOY 41025       2250   76 73  210/  6/  8 1021.2    2/ 8   2/140/ 8
CAPE LOOKOUT NC  0000   74     160/ 10/ 11 1020.3F
BUOY 41002       2250   76 78   70/ 16/ 17 1020.6    3/ 4   2/110/ 8
BUOY 41010       2320   76 79   70/ 16/ 17 1018.3F
ST AUGUSTINE FL  0000   77 81   80/ 11/ 13 1019.6F

$$




USA.gov is the U.S. government's official web portal to all federal, state and local government web resources and services.